Погода в Эльге

Россия / Хабаровский край     50°50′31″N   132°18′34″E
темп.,
°C
ветер,
м/с
пор.,
м/с
влажн.,
%
обл.,
%
осадки,
мм/ч
давл.,
гПа
погр.,
м
2 марта, вт
вт201:00−27юз22910 0.0 103219
04:00−28юз12920 0.0 103219
07:00−30зюз11930 0.0 103219
10:00−25сз01840 0.0 1032197
13:00−18сз13646 0.0 1030638
16:00−16з256127 0.0 10281324
19:00−20ю128498 0.0 102920
22:00−23ю118985 0.0 103021
3 марта, ср
ср301:00−24всв019149 0.0 102920
04:00−24св129974 0.1 102767
07:00−25св12100100 0.2 102583
10:00−22св1293100 0.3 1024195
13:00−16ссв1283100 0.1 1020356
16:00−12св0286100 0.3 1016337
19:00−16ююв119294 0.1 101527
22:00−17ю229282 0.2 101641
4 марта, чт
чт401:00−16ю229399 0.1 101558
04:00−16ююз129598 0.1 101435
07:00−16юз1196100 0.1 101432
10:00−13зсз1188100 0.1 1013182
13:00−8ссз1282100 0.2 1010400
16:00−7ссв1191100 1.1 1008229
19:00−9с0197100 0.8 100824
22:00−11з379199 1.4 1011192
5 марта, пт
пт501:00−18зюз348856 0.0 101476
04:00−22юз239028 0.0 101953
07:00−26юз23890 0.0 102253
10:00−24з38730 0.0 1024665
13:00−21з47680 0.0 1025916
16:00−21зсз58710 0.0 1027955
19:00−25зсз368575 0.0 1029218
22:00−27з249287 0.0 1032110
6 марта, сб
сб601:00−28зюз229485 0.0 103251
04:00−29юз239468 0.0 103336
07:00−31зюз22934 0.0 103421
10:00−26зсз118512 0.0 1034246
13:00−20зюз247049 0.0 1032782
16:00−16з256870 0.0 1030919
19:00−22с129261 0.0 103120
22:00−26зюз119030 0.0 103420